Canadian Transport — VCLX — position and weather

sailwx.info

Track history (hours):
 
Tides and Currents Weather Stations Pressure Air Temp Water Temp Dewpoint Dewpoint Depression Visibility Wind Speed Wind Dir Waves Ship Positions

Canadian Transport

Last reported at 2017-Oct-17 13:58 UTC. Time now 2017-Oct-20 01:47 UTC.
Position N 45°39' W 083°30'.

Length 223 m; draft 8.1 m.

Type: Cargo ship. MMSI: 316001698.

Date/timePositionNaut miles runAvg speedWind from/ knotsBaromVisibWave heightAir tempDewpointWater temp
2017-Oct-17 13:58N 45°39' W 083°30'511.6
2017-Oct-17 13:30N 45°43' W 083°35'343 9.3
2017-Oct-16 00:47N 47°00' W 091°40'1 0.0
2017-Oct-15 03:28N 47°01' W 091°40'0 0.2
2017-Oct-15 02:59N 47°01' W 091°40'0 0.2
2017-Oct-15 02:30N 47°01' W 091°40'0 0.7
2017-Oct-15 02:00N 47°01' W 091°40'302 7.2
2017-Oct-13 07:50N 45°51' W 084°33'711.4
2017-Oct-13 07:12N 45°49' W 084°43'312.7
2017-Oct-13 07:00N 45°49' W 084°47'612.3
2017-Oct-13 06:30N 45°50' W 084°56'612.2
2017-Oct-13 06:00N 45°51' W 085°04'612.0
2017-Oct-13 05:30N 45°52' W 085°13'611.9
2017-Oct-13 05:00N 45°52' W 085°21'611.9
2017-Oct-13 04:30N 45°53' W 085°30'611.7
2017-Oct-13 04:00N 45°52' W 085°38'612.2
2017-Oct-13 03:30N 45°50' W 085°46'612.1
2017-Oct-13 03:00N 45°47' W 085°54'  
Track history (hours):
 
Tides and Currents Weather Stations Pressure Air Temp Water Temp Dewpoint Dewpoint Depression Visibility Wind Speed Wind Dir Waves Ship Positions

Canadian Transport

Last reported at 2017-Oct-17 13:58 UTC. Time now 2017-Oct-20 01:47 UTC.
Position N 45°39' W 083°30'.

Length 223 m; draft 8.1 m.

Type: Cargo ship. MMSI: 316001698.

Date/timePositionNaut miles runAvg speedWind from/ knotsBaromVisibWave heightAir tempDewpointWater temp
2017-Oct-17 13:58N 45°39' W 083°30'511.6
2017-Oct-17 13:30N 45°43' W 083°35'343 9.3
2017-Oct-16 00:47N 47°00' W 091°40'1 0.0
2017-Oct-15 03:28N 47°01' W 091°40'0 0.2
2017-Oct-15 02:59N 47°01' W 091°40'0 0.2
2017-Oct-15 02:30N 47°01' W 091°40'0 0.7
2017-Oct-15 02:00N 47°01' W 091°40'302 7.2
2017-Oct-13 07:50N 45°51' W 084°33'711.4
2017-Oct-13 07:12N 45°49' W 084°43'312.7
2017-Oct-13 07:00N 45°49' W 084°47'612.3
2017-Oct-13 06:30N 45°50' W 084°56'612.2
2017-Oct-13 06:00N 45°51' W 085°04'612.0
2017-Oct-13 05:30N 45°52' W 085°13'611.9
2017-Oct-13 05:00N 45°52' W 085°21'611.9
2017-Oct-13 04:30N 45°53' W 085°30'611.7
2017-Oct-13 04:00N 45°52' W 085°38'612.2
2017-Oct-13 03:30N 45°50' W 085°46'612.1
2017-Oct-13 03:00N 45°47' W 085°54'  

Dump ship's entire track history